Home   Weather   Neuburg an der Donau   Past weeks

Flag for Germany Past Weather in Neuburg an der Donau, Bavaria, Germany — Yesterday and Last 2 Weeks

39 °F


Feels Like: 35 °F
Forecast: 42 / 55 °F
Wind: 6 mph from Southwest

Location: Neuburg / Donau

Current Time: Oct 28, 2016 at 12:31:27 PM

Latest Report: Oct 28, 2016 at 12:00 PM

Visibility: 0 mi

Pressure: 30.54 "Hg

Humidity: 100%

Dew Point: 39 °F

Location of Neuburg an der DonauLocation

Past Weather in Neuburg an der Donau — Graph


Neuburg an der Donau Temperature Yesterday

Maximum temperature yesterday: 54 °F (at 2:20 PM)
Minimum temperature yesterday: 36 °F (at 11:20 PM)
Average temperature yesterday: 47 °F

High & Low Weather Summary for the Past Weeks

High64 °F (Oct 16, 3:20 PM)100% (Oct 15, 2:20 AM)30.57 "Hg (Oct 15, 2:20 AM)
Low32 °F (Oct 23, 3:20 AM)58% (Oct 13, 3:20 PM)29.68 "Hg (Oct 14, 9:20 PM)
Average47 °F88%30.09 "Hg
* Reported Oct 13 11:20 AM — Oct 28 11:20 AM, Neuburg an der Donau, Weather by CustomWeather, © 2016

Note: Actual official high and low records may vary slightly from our data, if they occured in-between our weather recording intervals... More about our weather records


Neuburg an der Donau Weather History for the Previous 24 Hours

Scroll right to see more
Time TempWeatherWind HumidityBarometerVisibility
11:20 AM
Fri, Oct 28
39 °FFog.3 mph93%30.54 "Hg0 mi
10:20 AM37 °FFog.2 mph93%30.54 "Hg0 mi
9:20 AM34 °FFog.3 mph100%30.54 "Hg0 mi
8:20 AM34 °FFog.1 mph100%30.54 "Hg0 mi
7:20 AM34 °FFog.1 mph100%30.54 "Hg0 mi
6:20 AM32 °FFog.No wind100%30.54 "Hg0 mi
5:20 AM34 °FFog.No wind100%30.51 "Hg0 mi
4:20 AM34 °FFog.No wind100%30.54 "Hg0 mi
3:20 AM34 °FFog.2 mph100%30.54 "Hg0 mi
2:50 AM34 °FFog.No windN/A30.54 "Hg0 mi
2:20 AM36 °FFog.1 mph100%30.54 "Hg0 mi
1:20 AM36 °FFog.1 mph93%30.54 "Hg0 mi
12:20 AM36 °FFog.No wind100%30.54 "Hg0 mi
11:20 PM
Thu, Oct 27
36 °FFog.No wind100%30.57 "Hg0 mi
10:47 PM37 °FFog.1 mph93%30.54 "Hg0 mi
10:20 PM39 °FFog.2 mph100%30.54 "Hg1 mi
9:20 PM41 °FQuite cool.2 mph93%30.54 "HgN/A
8:20 PM43 °FQuite cool.2 mph93%30.54 "HgN/A
7:20 PM45 °FPassing clouds.1 mph87%30.54 "HgN/A
6:20 PM48 °FPassing clouds.1 mph82%30.51 "HgN/A
5:20 PM54 °FPassing clouds.5 mph63%30.51 "HgN/A
4:20 PM54 °FPassing clouds.3 mph63%30.51 "HgN/A
3:20 PM54 °FPassing clouds.5 mph63%30.51 "HgN/A
2:20 PM54 °FPassing clouds.5 mph58%30.51 "HgN/A
1:20 PM52 °FPassing clouds.5 mph62%30.54 "HgN/A
12:20 PM52 °FPassing clouds.6 mph62%30.54 "HgN/A
Weather by CustomWeather, © 2016

See weather overviewHow to use our weather pages